RH
98 38 24 15 18 12 10 9 10 11 11 12 13 16 18 22 25 33 39 53 100 100 100 100 100 100 87 62 72 87 96 98 90 100 100 100 98 100 100 100 100 100 100 100 100 100 100
100 42 35 16 17 15 13 12 12 12 12 13 16 19 20 20 26 33 36 41 75 100 100 100 100 100 99 76 52 50 71 72 85 91 100 100 100 95 97 100 100 100 100 100 100 98 100
100 46 49 22 17 20 16 14 14 13 13 14 20 22 23 22 26 28 38 34 41 71 100 100 100 100 94 100 99 63 46 55 65 77 73 87 82 87 70 84 98 100 100 95 79 100 93
100 68 83 27 18 20 19 17 16 16 15 15 19 27 27 26 27 31 34 38 37 40 55 94 100 100 91 100 100 100 60 51 50 50 49 57 63 66 64 60 70 72 89 84 80 80 89
100 93 88 32 20 20 24 18 18 17 17 16 17 23 26 26 29 29 31 36 36 41 50 61 93 96 98 100 100 96 100 100 84 45 43 50 44 44 59 58 47 46 57 65 85 76 68
98 100 88 40 24 24 22 25 20 19 19 18 17 19 23 25 26 30 29 28 31 36 44 51 73 98 100 100 100 90 75 88 100 90 71 83 56 92 65 78 55 49 50 58 59 60 48
100 100 92 42 30 30 24 24 25 22 21 21 19 17 18 21 26 31 31 31 28 28 30 32 41 66 92 100 100 98 100 61 88 94 100 98 85 61 100 98 52 67 46 62 67 68 55
100 100 98 58 39 42 30 25 26 27 24 22 23 20 18 19 24 29 32 31 28 25 23 22 23 26 46 84 95 97 97 99 87 95 98 95 94 100 97 100 98 77 63 85 100 100 76
100 100 100 72 55 40 46 29 27 29 30 26 22 23 23 20 20 21 24 28 27 25 22 20 19 19 20 24 41 64 81 80 84 90 93 95 86 70 87 94 99 99 97 92 100 91 78
67 100 100 96 61 73 41 50 29 28 32 35 32 26 23 23 23 21 20 19 19 20 19 17 16 17 16 16 18 19 22 32 44 48 50 64 84 87 92 96 78 50 53 71 76 100 100
67 96 100 100 55 84 56 52 50 29 30 29 36 34 30 27 23 21 21 20 19 18 17 16 16 15 14 14 14 14 15 16 16 17 19 20 24 31 50 71 79 82 75 71 66 74 53
100 97 100 99 100 94 80 71 61 37 26 30 28 31 33 32 31 30 29 26 24 22 21 21 19 18 16 15 15 14 14 13 12 12 13 13 13 13 13 15 17 20 21 24 28 33 36
100 99 100 85 100 100 100 81 54 100 53 29 29 30 28 27 29 29 28 27 26 26 24 23 23 22 22 21 21 21 20 18 17 16 15 14 14 13 13 12 11 11 11 11 10 10 10
91 100 100 89 72 100 100 99 63 37 97 84 27 27 30 30 29 27 26 25 26 25 24 22 22 21 20 19 20 21 19 18 18 16 15 15 14 14 15 15 14 13 12 12 11 10 10
85 79 100 100 100 94 84 100 78 58 47 47 92 26 26 31 33 32 32 32 31 29 29 30 30 29 28 31 32 31 28 26 24 21 19 17 15 15 14 14 13 13 14 13 12 11 9
88 84 84 100 100 100 100 82 100 96 72 58 55 94 31 25 30 35 36 38 36 36 38 38 36 34 34 32 27 26 22 20 18 18 17 17 16 17 16 18 17 17 18 18 18 15 12
88 97 77 100 100 100 100 99 96 100 96 74 61 45 94 48 28 31 37 40 43 44 40 41 34 28 25 24 24 23 26 27 25 21 20 19 20 21 20 21 21 21 22 21 19 17 14
34 95 100 80 100 100 100 100 75 100 100 96 79 75 54 80 68 34 32 36 44 48 39 28 26 26 26 28 29 35 35 31 30 30 26 23 19 21 21 22 21 22 24 22 20 18 18
27 55 93 100 89 100 100 100 100 79 100 100 98 89 53 69 89 100 46 36 33 44 33 31 32 34 34 37 43 45 44 38 34 37 34 27 24 20 22 23 22 25 24 25 26 21 18
21 28 78 83 100 100 100 100 100 97 78 100 100 100 77 100 72 76 99 80 41 33 33 31 35 37 38 40 40 45 38 42 38 39 39 35 28 24 32 33 28 30 30 25 24 24 25
18 26 30 68 82 99 100 100 100 100 88 96 100 100 100 100 100 97 68 92 100 69 35 32 33 36 41 44 49 38 29 31 33 37 40 47 33 30 32 37 39 30 33 26 24 22 24
14 19 29 30 62 77 96 100 100 100 100 81 76 100 100 100 100 100 71 88 100 100 100 64 39 40 42 52 72 51 41 33 34 38 41 44 41 44 43 40 47 43 38 32 28 22 23
12 15 26 28 34 54 85 98 100 100 100 100 93 79 100 100 100 100 100 68 95 96 100 100 100 94 84 84 67 54 48 42 37 36 45 50 54 52 50 53 50 45 35 38 33 30 26
11 13 21 27 27 38 66 99 100 100 100 100 100 84 92 100 100 100 100 100 87 99 86 94 100 100 99 94 93 81 59 41 42 44 66 82 77 52 56 58 57 46 40 41 38 32 29
11 13 19 27 29 36 44 80 98 100 100 100 100 100 86 100 100 99 100 100 100 86 97 96 95 93 99 100 98 100 75 54 53 48 60 87 65 62 54 61 70 50 41 45 40 38 35
10 13 17 26 29 36 42 51 95 96 100 100 100 100 100 100 100 96 91 100 100 100 98 97 100 100 89 91 97 100 76 52 48 50 51 79 77 64 63 56 80 66 48 52 46 47 37
9 14 17 26 30 36 47 52 72 100 100 100 100 100 100 100 100 100 98 100 100 100 100 100 100 100 100 100 100 100 100 80 47 44 50 100 70 66 58 61 86 69 62 51 55 52 45
7 13 16 24 33 40 45 52 67 100 100 100 100 100 100 100 100 100 100 100 100 99 100 100 100 100 99 92 97 98 98 84 69 48 96 98 75 70 67 64 83 72 68 56 59 50 49
8 12 17 24 35 43 49 57 63 79 99 100 98 100 100 100 100 100 100 100 100 96 99 98 81 97 88 93 83 79 86 78 67 55 99 73 67 72 65 78 78 66 67 66 64 61 59
Wind_Speed
42 47 46 43 34 21 14 22 35 47 56 62 70 73 72 74 75 80 81 83 88 93 87 85 78 73 74 82 79 74 77 77 74 71 66 65 66 62 60 59 58 56 56 58 57 59 54
37 42 41 40 34 19 10 16 30 43 50 59 63 68 67 71 73 75 78 79 83 92 93 92 91 85 81 78 77 78 76 80 79 76 71 70 72 72 67 64 59 58 60 62 64 64 63
33 40 39 40 33 19 12 17 26 36 47 55 58 63 65 66 69 72 73 77 79 83 92 91 91 84 80 81 74 76 77 80 79 80 78 76 76 76 78 71 69 64 64 69 67 67 67
27 35 36 37 32 20 12 16 21 28 40 50 57 59 60 62 65 67 70 74 73 79 80 83 94 90 86 86 83 75 78 71 80 82 78 83 79 78 83 85 81 76 73 70 73 73 71
24 31 30 33 26 19 12 14 19 25 35 41 53 58 57 59 62 63 65 68 68 71 72 78 85 97 96 93 85 84 81 79 78 79 75 74 77 82 79 79 82 83 78 77 76 79 77
27 22 24 28 24 18 13 11 16 22 29 37 45 56 57 56 58 60 59 63 64 66 67 70 73 82 88 87 85 90 90 91 86 84 82 84 78 79 80 81 79 78 81 82 83 82 83
31 25 21 25 22 17 16 10 12 20 23 29 36 45 57 58 56 57 57 57 57 61 64 68 70 75 78 87 88 91 89 94 100 81 84 86 84 84 85 84 85 84 83 83 83 83 84
40 27 19 24 19 18 16 14 11 11 23 25 29 36 45 55 57 56 57 58 57 57 58 59 62 66 72 76 81 85 90 92 101 99 100 95 92 91 87 90 91 92 91 90 91 90 86
36 38 26 27 19 16 19 17 16 14 12 21 27 30 36 43 51 55 57 57 59 59 58 58 59 60 61 68 73 79 87 91 91 91 93 96 99 101 100 103 103 98 101 102 103 102 102
41 42 34 32 25 22 18 20 20 20 19 18 19 27 32 34 38 44 49 53 56 58 58 59 59 60 61 62 66 70 74 80 86 90 91 93 97 103 107 107 112 113 112 112 111 115 111
47 44 44 39 32 27 24 20 24 22 24 25 24 23 24 29 33 38 41 43 45 47 50 52 55 57 60 60 63 66 70 72 76 79 83 88 88 93 97 103 108 113 116 117 120 119 119
50 48 51 47 41 35 30 27 26 28 25 26 30 30 29 29 29 29 30 33 36 39 41 42 44 47 48 50 53 56 59 64 69 71 74 75 76 80 83 88 93 97 102 108 114 118 123
57 53 52 50 51 43 38 33 29 30 31 28 28 29 33 35 34 34 34 34 34 34 35 35 36 37 37 38 41 43 46 49 52 54 57 59 62 66 69 77 80 82 87 93 98 102 107
69 64 59 55 55 53 46 39 36 31 30 34 32 30 29 32 34 37 38 38 39 39 39 38 39 40 40 40 40 42 44 44 46 48 48 48 50 52 56 63 64 66 70 76 80 84 88
74 70 66 63 59 54 51 49 43 41 38 28 36 34 32 31 30 32 34 34 35 35 35 34 32 31 32 32 34 34 35 37 39 42 43 43 46 49 53 57 60 62 67 70 73 75 75
80 79 74 72 66 61 57 55 55 46 47 43 32 37 36 34 32 32 32 32 32 33 33 32 32 32 31 30 30 29 29 31 32 34 34 36 38 40 45 48 52 53 58 60 62 66 68
89 86 83 81 77 72 66 61 62 56 52 49 43 35 34 39 36 35 36 35 35 36 35 33 33 31 29 27 28 27 28 30 32 34 34 34 32 33 38 42 44 44 48 50 51 55 58
86 95 90 88 85 77 73 69 67 65 58 57 51 46 38 32 41 38 36 38 39 40 36 34 32 31 29 29 28 27 29 32 35 37 37 37 36 31 30 35 38 40 43 45 47 47 48
90 97 97 93 92 85 79 75 71 69 67 60 59 55 43 35 37 42 43 39 39 42 40 37 35 34 33 33 31 32 33 34 36 38 41 40 39 38 37 38 36 35 36 39 40 42 45
94 100 103 96 95 92 86 81 77 77 71 67 65 62 55 47 43 43 42 46 44 43 45 43 40 39 38 36 34 34 36 36 37 38 40 42 36 36 33 34 36 33 35 37 37 34 38
99 102 108 104 100 96 92 88 82 80 77 72 68 61 61 55 51 49 46 46 45 51 48 50 48 45 44 43 41 39 34 36 36 36 39 38 35 34 32 32 37 38 37 38 36 30 32
100 106 108 111 106 102 98 95 88 84 82 76 70 69 65 61 57 53 50 48 50 48 51 54 54 53 51 49 49 44 40 37 37 37 39 37 37 35 36 35 36 39 37 41 39 36 36
98 105 111 111 109 106 102 99 95 90 85 81 79 74 73 66 61 58 57 55 54 54 51 51 53 56 54 52 49 48 45 41 40 37 38 39 37 40 40 40 41 40 36 39 39 38 39
95 104 110 112 110 108 108 102 98 94 91 87 84 79 77 74 67 63 63 58 56 56 56 53 53 52 52 52 51 52 51 45 42 39 38 40 42 43 45 42 42 43 37 37 39 38 40
91 99 110 112 111 107 108 107 102 98 93 91 88 85 81 79 74 69 67 62 59 57 56 59 55 55 52 52 53 54 54 49 44 41 37 41 43 44 46 44 43 45 36 34 36 39 42
89 96 109 115 112 107 107 106 104 101 96 95 92 89 87 81 82 79 73 68 62 61 59 58 60 58 56 54 52 54 55 53 48 44 41 43 45 45 45 41 45 48 37 37 36 41 43
86 94 108 113 112 108 106 107 103 101 99 95 94 91 87 84 84 79 76 75 69 62 60 57 54 55 54 55 52 52 55 56 52 45 41 42 47 48 50 41 45 48 37 36 37 39 42
86 94 104 112 111 109 107 106 104 102 100 96 92 89 87 85 87 83 80 74 75 71 66 65 61 56 58 57 57 57 57 59 57 44 38 43 48 51 47 43 44 42 39 38 40 44 46
85 94 101 111 110 108 107 107 104 102 103 99 94 89 88 88 85 84 80 77 78 74 73 70 65 65 62 61 59 59 60 60 56 45 44 48 52 48 47 48 49 37 39 39 40 45 48
Wind_Direction
302 313 321 328 329 317 268 232 220 213 212 212 213 215 218 219 221 222 222 224 221 220 224 226 223 229 238 235 233 233 235 235 232 235 242 240 241 243 242 239 238 238 242 245 248 251 250
302 312 317 324 332 321 277 230 221 215 213 212 212 214 218 220 223 224 224 225 226 224 225 227 226 232 234 241 240 241 240 239 238 239 243 244 243 244 242 241 242 238 240 243 247 251 253
301 308 314 324 329 323 273 235 226 221 216 214 214 215 217 220 222 225 227 226 228 230 228 229 227 230 231 232 241 245 241 241 243 241 243 248 251 245 245 244 246 245 243 244 244 248 252
295 301 307 317 325 329 284 238 230 221 215 215 215 216 218 220 223 226 227 229 229 231 233 233 231 233 236 233 238 239 242 247 242 242 245 244 249 250 248 247 249 248 246 249 246 246 246
283 292 303 315 318 318 312 249 224 225 221 220 219 220 219 220 223 226 228 231 233 231 234 235 235 236 237 239 239 236 236 243 242 243 249 244 247 249 249 249 251 251 250 246 249 247 246
272 278 297 309 304 308 307 265 233 224 224 224 224 223 223 223 224 226 229 231 233 235 235 236 237 236 237 240 239 238 240 242 244 246 248 247 250 249 246 245 248 250 254 253 250 252 249
265 262 284 294 297 287 296 288 238 227 227 226 225 224 224 225 226 228 230 233 236 238 239 240 240 240 241 241 242 240 242 241 244 243 242 244 248 247 247 248 251 254 255 253 252 251 251
254 254 261 279 290 268 281 279 269 234 224 224 226 224 223 225 227 229 231 233 236 238 240 243 245 245 244 243 243 245 246 242 241 246 249 247 247 246 244 245 248 252 252 251 252 253 252
252 251 250 264 265 270 266 269 260 252 234 227 225 223 222 223 227 230 233 235 237 239 241 243 245 247 247 247 247 247 248 249 249 249 248 251 248 250 250 250 249 250 250 254 255 255 255
248 241 244 254 251 258 260 263 252 246 239 230 224 226 226 224 225 229 233 237 240 242 244 246 248 249 248 249 250 251 250 251 252 254 255 255 252 251 252 253 253 254 255 256 257 253 256
245 242 240 248 246 244 244 262 252 244 240 235 229 227 228 225 227 229 231 233 236 238 241 243 245 247 248 250 251 252 254 253 254 254 255 257 258 259 259 259 259 259 262 262 262 257 255
240 246 237 238 242 237 237 251 252 242 239 238 235 231 230 231 230 229 230 232 234 237 241 244 246 248 249 249 251 253 254 255 255 256 256 257 258 259 260 260 261 262 262 263 264 263 263
237 238 235 232 238 239 238 240 245 243 237 238 237 235 234 234 235 234 234 232 233 234 236 238 241 244 244 245 247 250 251 252 253 253 255 256 257 260 262 262 262 263 264 265 266 266 265
236 238 236 230 230 234 237 235 238 234 242 240 239 233 232 230 231 235 235 237 238 241 243 243 243 244 246 247 250 252 256 259 261 262 261 262 264 263 264 267 268 266 266 266 266 266 268
232 235 233 231 230 225 234 237 235 233 237 238 239 236 234 232 231 231 231 232 233 235 237 238 240 241 244 244 246 251 257 263 266 270 272 270 271 270 268 268 268 270 272 274 275 276 274
227 229 228 227 230 229 234 239 234 234 233 236 241 237 235 234 233 233 231 232 233 234 235 237 236 236 235 239 243 248 256 263 269 274 277 277 276 275 272 272 273 276 277 280 282 282 283
225 224 225 226 228 234 233 235 232 231 234 231 236 240 236 235 235 235 235 237 235 237 238 236 237 235 232 233 244 257 267 274 279 283 287 291 288 288 283 277 276 279 283 285 290 291 288
223 222 222 225 227 228 231 231 229 230 231 230 233 238 241 238 235 236 239 239 238 238 238 232 231 231 234 240 250 263 270 276 280 283 287 290 297 290 293 288 282 284 291 295 296 298 298
221 220 219 222 224 226 227 230 230 226 230 232 232 234 238 240 237 237 237 240 240 237 236 229 232 237 241 247 255 262 269 275 278 281 287 293 296 298 301 297 294 293 294 300 306 309 304
222 219 217 218 221 222 221 227 228 225 227 229 233 233 236 239 238 240 242 240 240 241 237 236 239 242 246 252 257 263 269 270 276 281 285 291 297 298 299 299 297 295 295 298 305 313 317
220 218 215 213 219 218 218 221 225 224 226 225 230 232 236 239 239 242 246 243 240 239 240 242 245 249 252 254 258 258 262 270 274 276 281 287 301 300 299 294 295 298 301 299 303 310 316
219 217 214 213 214 216 216 219 219 223 224 226 226 228 233 234 238 239 244 243 243 240 241 241 245 247 253 254 258 256 262 267 271 274 277 285 296 309 301 295 300 297 301 302 307 313 320
222 218 213 213 212 214 216 217 218 219 221 226 228 228 230 231 236 240 237 241 242 243 241 244 247 249 252 257 256 255 261 267 269 275 276 282 290 299 306 304 297 296 298 300 304 309 317
222 216 212 212 211 212 214 215 217 218 221 224 228 228 229 232 232 236 236 239 242 244 246 244 246 249 250 254 256 259 262 266 269 273 272 281 287 296 306 304 297 294 298 298 300 306 314
220 216 209 209 208 210 213 215 216 217 219 223 226 229 228 229 233 235 235 238 241 245 245 247 248 248 251 255 259 262 264 265 267 272 276 280 288 295 303 304 298 292 296 296 299 304 312
218 215 209 207 208 209 211 213 215 217 218 221 225 226 231 233 233 235 235 235 237 239 244 246 246 247 249 253 257 260 263 265 265 270 278 283 290 296 304 300 298 293 298 298 302 305 312
215 213 209 207 206 208 209 211 213 215 217 220 223 226 229 231 233 236 238 236 234 238 240 242 247 248 249 251 254 258 262 266 267 270 275 284 285 292 302 298 298 292 294 293 299 301 310
214 212 209 206 205 207 208 210 212 215 217 220 222 224 228 232 232 235 237 238 237 237 239 239 243 248 248 249 252 256 261 265 270 276 276 277 284 292 298 295 293 291 292 294 300 305 312
211 210 209 206 206 206 208 209 211 214 217 219 220 222 224 227 230 234 236 238 236 238 240 241 243 246 250 251 255 260 263 267 273 280 277 279 287 290 294 292 290 290 289 295 299 306 313